Regional Weather Roundup
Issued by NWS

Home | Current Version | Previous Version | Text Only | Print | Product List | Glossary On
Versions: 1 2 3 4 5 6 7 8 9 10 11 12 13 14 15 16 17 18 19 20 21 22 23 24 25 26 27 28 29 30 31 32 33 34 35 36 37 38 39 40 41 42 43 44 45 46 47 48 49 50
000
ASUS43 KOAX 292302
RWRNE

WEATHER ROUNDUP FOR NEBRASKA
NATIONAL WEATHER SERVICE OMAHA NE
600 PM CDT MON AUG 29 2016

NOTES: SATELLITE DATA IS BEING USED TO AUGMENT CLOUD COVER ABOVE
       12000 FEET.
       "FAIR" INDICATES FEW OR NO CLOUDS BELOW 12,000 FEET WITH NO
       SIGNIFICANT WEATHER AND/OR OBSTRUCTIONS TO VISIBILITY.

  * THESE STATIONS DO NOT REPORT WEATHER SUCH AS RAIN...SNOW OR FOG.

NEZ001>004-019>022-054>056-300000-
NEBRASKA PANHANDLE

CITY           SKY/WX    TMP DP  RH WIND       PRES   REMARKS
SCOTTSBLUFF    CLOUDY    85  55  35 SE10      30.22S
ALLIANCE       LGT RAIN  70  56  61 SE18G32   30.24R
CHADRON        CLOUDY    87  52  29 E12       30.19S
SIDNEY         CLOUDY    68  60  75 S8        30.27R
$$

NEZ057>060-069>072-079>082-300000-
SOUTHWEST NEBRASKA

CITY           SKY/WX    TMP DP  RH WIND       PRES   REMARKS
NORTH PLATTE   CLOUDY    79  64  60 S7        30.20R
IMPERIAL       CLOUDY    77  61  57 S8        30.22R
LEXINGTON      CLOUDY    78  66  66 SW6       30.19R
MCCOOK         CLOUDY    78  63  59 SE5       30.20R
$$

NEZ005>010-023>029-035>040-094-300000-
NORTH CENTRAL NEBRASKA

CITY           SKY/WX    TMP DP  RH WIND       PRES   REMARKS
VALENTINE      CLOUDY    84  60  44 S13       30.16S
AINSWORTH      CLOUDY    82  63  52 S7        30.18S
BROKEN BOW     MOSUNNY   79  66  64 VRB5      30.18R
O`NEILL        CLOUDY    84  59  41 SW3       30.16S
ORD            MOSUNNY   82  64  54 S7        30.15S
THEDFORD       CLOUDY    82  62  51 SE7       30.20F
$$

NEZ041-046>049-061>064-073>077-083>087-300000-
SOUTH CENTRAL NEBRASKA

CITY           SKY/WX    TMP DP  RH WIND       PRES   REMARKS
GRAND ISLAND   CLOUDY    81  66  60 S18G28    30.17R
AURORA         DRIZZLE   74  68  82 SE3       30.18R
HASTINGS       CLOUDY    74  63  68 S3        30.19R
HEBRON         CLOUDY    73  67  79 W5        30.15R
HOLDREGE       PTSUNNY   78  67  68 S3        30.19R
KEARNEY *      MOSUNNY   81  66  61 S7        30.16S
YORK           CLOUDY    73  68  83 CALM      30.17R
$$

NEZ011>018-030>034-042>045-300000-
NORTHEAST NEBRASKA

CITY           SKY/WX    TMP DP  RH WIND       PRES   REMARKS
NORFOLK        MOSUNNY   84  62  47 S6        30.14S
ALBION         MOSUNNY   82  66  57 SE3       30.16R
BLAIR          CLOUDY    81  74  79 CALM      30.14S
FREMONT        CLOUDY    81  71  71 CALM      30.14R
TEKAMAH        CLOUDY    83  74  74 CALM      30.12S
WAYNE          SUNNY     83  72  67 S5        30.15R
$$

NEZ050>053-065>068-078-088>093-300000-
SOUTHEAST NEBRASKA

CITY           SKY/WX    TMP DP  RH WIND       PRES   REMARKS
LINCOLN        TSTM      74  68  81 N12       30.16R
OMAHA EPPLEY   HVY RAIN  75  69  81 E13       30.14R
BEATRICE       CLOUDY    73  68  87 SE12      30.14S
FALLS CITY     MOSUNNY   86  71  60 S7        30.10R HX  91
NEBRASKA CITY  LGT RAIN  81  72  75 CALM      30.12R
PLATTSMOUTH    CLOUDY    79  69  69 E3        30.14R
$$

NEZ044-045-051>053-067-300000-
OMAHA AREA

CITY           SKY/WX    TMP DP  RH WIND       PRES   REMARKS
OMAHA EPPLEY   HVY RAIN  75  69  81 E13       30.14R
BLAIR          CLOUDY    81  74  79 CALM      30.14S
FREMONT        CLOUDY    81  71  71 CALM      30.14R
MILLARD        CLOUDY    81  74  79 CALM      30.12S
OFFUTT AFB     CLOUDY    82  72  71 E18G28    30.14R
PLATTSMOUTH    CLOUDY    79  69  69 E3        30.14R
WAHOO          LGT RAIN  74  70  85 W12       30.15R
$$




USA.gov is the U.S. government's official web portal to all federal, state and local government web resources and services.